ASTRA 2E

Last updated on Sat Sep 12 2026 00:03:02 GMT+0000 (Coordinated Universal Time)

1 39285U 13056A 26254.58707484 .00000133 00000+0 00000+0 0 9999 2 39285 0.0936 304.1349 0002173 222.6036 63.7049 1.00270580 47288
UTC large
Height (km)
Speed (km/s)
/
Latitude / Longitude
Inclination (degrees)
Orbital Period (minutes)
Azimuth
Elevation
Range (km)
Doppler Factor

Next 0 passes for location: London (51.5072 / 0.1276)

No passes found over London.
ASTRA 2E